[[{"header":{"parameterUnit":"m.s-1","parameterCategory":1,"la1":30.2991,"la2":30.254,"lo1":-89.0895,"lo2":-89.0444,"dy":0.0017,"dx":0.0017,"nx":28,"ny":28,"refTime":"2024-05-05T21:00:00:Z","depth":0,"parameterNumber":2,"parameterNumberName":"U-component_of_WINDS"},"data":[0,0,0,0,0,0,0,0,0,0,0,0,0,0,0,0,0,0,0,0,0,0,0,0,0,0,0,0,0,0,0,0,0,0,0,0,0,0,0,0,0,0,0,0,0,0,0,0,0,0,0,0,0,0,0,0,0,0,-0.7224,-0.7224,0,-0.7223,-0.7222,-0.7222,-0.7212,-0.7211,-0.7211,-0.7211,-0.7209,-0.721,-0.721,0,0,0,0,0,0,0,0,0,0,0,0,0,-0.7219,-0.7219,-0.7224,-0.7224,-0.7224,-0.7223,-0.7222,-0.7222,-0.7212,-0.7211,-0.7211,-0.7211,-0.7209,-0.721,-0.721,0,0,0,0,0,0,0,0,0,0,0,0,0,-0.722,-0.722,-0.7224,-0.7219,-0.7218,-0.7223,-0.7222,-0.7222,-0.7212,-0.7211,-0.7211,-0.721,-0.7209,-0.7209,-0.721,-0.722,0,0,-0.7211,-0.7211,0,0,0,0,0,0,0,0,-0.722,-0.722,-0.722,-0.7219,-0.7218,-0.7217,-0.722,-0.7222,-0.7212,-0.7214,-0.7211,-0.721,-0.7212,-0.7212,-0.7213,-0.722,-0.722,-0.7211,-0.7211,-0.7211,-0.7211,0,0,0,0,0,0,0,-0.722,-0.722,-0.7224,-0.722,-0.7219,-0.7216,-0.7216,-0.722,-0.7215,-0.7214,-0.7213,-0.7213,-0.7212,-0.7212,-0.7213,-0.722,-0.7211,-0.7211,-0.7211,-0.7211,-0.7235,-0.7236,0,0,0,0,0,0,-0.7221,-0.722,-0.7224,-0.7224,-0.7218,-0.7217,-0.7216,-0.7218,-0.7215,-0.7215,-0.7213,-0.7212,-0.7212,-0.7212,-0.7213,-0.7225,-0.7211,-0.7211,-0.7212,-0.7235,-0.7235,-0.7236,0,0,0,0,0,0,-0.722,-0.7221,-0.7224,-0.7222,-0.7222,-0.7217,-0.7219,-0.7218,-0.7219,-0.7215,-0.7214,-0.7215,-0.7212,-0.7212,-0.7218,-0.7224,-0.7212,-0.7212,-0.7234,-0.7235,-0.7236,-0.7248,0,0,0,0,0,0,-0.722,-0.7221,-0.7225,-0.7222,-0.7222,-0.7229,-0.7219,-0.7218,-0.7219,-0.7218,-0.7216,-0.7215,-0.7212,-0.7218,-0.7218,-0.7225,-0.7212,-0.7234,-0.7235,-0.7235,-0.7247,-0.7249,-0.7251,0,0,0,0,0,-0.722,-0.7228,-0.7225,-0.7225,-0.7226,-0.723,-0.723,-0.7225,-0.722,-0.7223,-0.7221,-0.7216,-0.7223,-0.7218,-0.7219,-0.7225,-0.7233,-0.7234,-0.7235,-0.7246,-0.7249,-0.7251,0,0,0,0,0,0,-0.7232,-0.7228,-0.7224,-0.7231,-0.7231,-0.7228,-0.7232,-0.7228,-0.7229,-0.7228,-0.7222,-0.7222,-0.7229,-0.7227,-0.7222,-0.7235,-0.7227,-0.7229,-0.7236,-0.7238,-0.724,-0.724,-0.7212,0,0,0,0,0,-0.7235,-0.7238,-0.7234,-0.7241,-0.7241,-0.7237,-0.7238,-0.7234,-0.7234,-0.7234,-0.7232,-0.7232,-0.7234,-0.7236,-0.7238,-0.7247,-0.7247,-0.7252,-0.7254,-0.7255,-0.7256,-0.7262,-0.7264,-0.7239,-0.7239,-0.7239,0,0,-0.7242,-0.724,-0.7243,-0.7243,-0.7243,-0.7246,-0.7237,-0.7241,-0.7243,-0.7234,-0.724,-0.7239,-0.7238,-0.7246,-0.7249,-0.7245,-0.7263,-0.7256,-0.7258,-0.7258,-0.7263,-0.7265,-0.7267,-0.724,-0.724,-0.7239,0,0,-0.7257,-0.7256,-0.7262,-0.7261,-0.726,-0.7257,-0.7259,-0.7256,-0.7255,-0.726,-0.7254,-0.7257,-0.7261,-0.7261,-0.7262,-0.7277,-0.7272,-0.7278,-0.7288,-0.7293,-0.7295,-0.7297,-0.7303,-0.7305,-0.7279,-0.7279,-0.7279,0,-0.7266,-0.7271,-0.7265,-0.727,-0.7271,-0.7262,-0.7269,-0.7268,-0.7268,-0.7269,-0.7264,-0.727,-0.7269,-0.7277,-0.7281,-0.7281,-0.7283,-0.7278,-0.7295,-0.7297,-0.7298,-0.7304,-0.7306,-0.728,-0.728,-0.728,-0.728,0,-0.7283,-0.7286,-0.7291,-0.7291,-0.7292,-0.7297,-0.7293,-0.7295,-0.7291,-0.7288,-0.7295,-0.7293,-0.7295,-0.7296,-0.7293,-0.7304,-0.7302,-0.7296,-0.7288,-0.7302,-0.7307,-0.7309,-0.7281,-0.7281,-0.728,-0.728,0,0,-0.7305,-0.7302,-0.7304,-0.7304,-0.7302,-0.7305,-0.731,-0.7312,-0.7314,-0.7314,-0.7318,-0.7322,-0.7317,-0.7318,-0.7314,-0.7319,-0.7332,-0.7313,-0.7313,-0.7317,-0.7345,-0.7349,-0.7352,-0.7328,-0.7328,-0.7329,-0.7345,0,-0.732,-0.7328,-0.7323,-0.7333,-0.7336,-0.7328,-0.7333,-0.7332,-0.733,-0.7333,-0.7331,-0.7334,-0.7327,-0.7327,-0.7331,-0.7329,-0.7337,-0.7328,-0.7333,-0.7333,-0.7334,-0.7354,-0.7359,-0.7374,-0.7347,-0.7347,-0.7347,0,-0.7339,-0.734,-0.7349,-0.7347,-0.7348,-0.7352,-0.7354,-0.7356,-0.7356,-0.7354,-0.7355,-0.735,-0.7355,-0.7347,-0.7354,-0.7348,-0.735,-0.7349,-0.7349,-0.735,-0.7341,-0.7356,-0.7379,-0.7382,-0.735,-0.735,-0.735,0,-0.7355,-0.7359,-0.7365,-0.7365,-0.7363,-0.7366,-0.7365,-0.7364,-0.7366,-0.7367,-0.7368,-0.737,-0.7371,-0.7372,-0.7368,-0.7363,-0.7376,-0.7368,-0.7376,-0.7376,-0.7379,-0.7379,-0.7403,-0.7379,-0.7379,-0.7379,-0.7379,0,-0.7373,-0.7379,-0.7372,-0.7376,-0.7383,-0.7378,-0.7385,-0.7383,-0.7382,-0.7386,-0.7379,-0.7383,-0.7377,-0.738,-0.7377,-0.7384,-0.7384,-0.7384,-0.7383,-0.7385,-0.7385,-0.7386,-0.7385,-0.738,-0.738,-0.738,-0.7379,0,-0.7393,-0.7388,-0.7395,-0.7392,-0.7391,-0.7397,-0.7395,-0.7398,-0.7395,-0.74,-0.7401,-0.7397,-0.7401,-0.7397,-0.74,-0.7398,-0.7407,-0.7404,-0.7407,-0.7407,-0.7415,-0.7415,-0.7441,-0.7445,-0.7418,-0.7418,-0.7418,0,-0.7405,-0.741,-0.7407,-0.7409,-0.7409,-0.7412,-0.7413,-0.7408,-0.7409,-0.7409,-0.7413,-0.7416,-0.7418,-0.7424,-0.7421,-0.7424,-0.7422,-0.7431,-0.7422,-0.7424,-0.7423,-0.7423,-0.7423,-0.7433,-0.7433,-0.7433,-0.7434,0,-0.7427,-0.7424,-0.7427,-0.7428,-0.743,-0.7431,-0.7431,-0.7433,-0.7428,-0.743,-0.7433,-0.7435,-0.7438,-0.7441,-0.7443,-0.7442,-0.7437,-0.7436,-0.7438,-0.7441,-0.7443,-0.7442,-0.7413,-0.7436,-0.7436,-0.7436,-0.7435,-0.7435,-0.7444,-0.7448,-0.7447,-0.745,-0.7449,-0.745,-0.7453,-0.7451,-0.7454,-0.7456,-0.7452,-0.7456,-0.7456,-0.7458,-0.7458,-0.7461,-0.7457,-0.746,-0.7461,-0.7462,-0.7464,-0.7441,-0.7462,-0.7461,-0.7461,-0.7461,-0.7461,0,-0.7466,-0.7465,-0.7468,-0.7469,-0.7471,-0.7465,-0.7465,-0.7468,-0.7472,-0.7471,-0.7474,-0.7478,-0.7481,-0.7478,-0.7481,-0.7484,-0.7482,-0.7485,-0.7485,-0.7485,-0.7467,-0.7465,-0.7487,-0.7487,-0.7487,-0.7487,-0.7487,-0.7487,-0.7478,-0.7485,-0.7482,-0.7489,-0.7488,-0.7492,-0.7493,-0.7493,-0.7493,-0.7498,-0.75,-0.7498,-0.7497,-0.75,-0.7502,-0.7502,-0.7503,-0.7507,-0.7506,-0.7489,-0.7486,-0.7484,-0.7482,-0.7508,-0.7508,-0.7524,-0.7524,-0.7524]},{"header":{"parameterUnit":"m.s-1","parameterCategory":1,"la1":30.2991,"la2":30.254,"lo1":-89.0895,"lo2":-89.0444,"dy":0.0017,"dx":0.0017,"nx":28,"ny":28,"refTime":"2024-05-05T21:00:00:Z","depth":0,"parameterNumber":3,"parameterNumberName":"V-component_of_WINDS"},"data":[0,0,0,0,0,0,0,0,0,0,0,0,0,0,0,0,0,0,0,0,0,0,0,0,0,0,0,0,0,0,0,0,0,0,0,0,0,0,0,0,0,0,0,0,0,0,0,0,0,0,0,0,0,0,0,0,0,0,3.1806,3.1806,0,3.1883,3.1883,3.1884,3.1884,3.1883,3.1882,3.1881,3.1956,3.1959,3.1962,0,0,0,0,0,0,0,0,0,0,0,0,0,3.1654,3.1657,3.1805,3.1806,3.1807,3.1882,3.1883,3.1885,3.1884,3.1883,3.1882,3.188,3.1955,3.1959,3.1962,0,0,0,0,0,0,0,0,0,0,0,0,0,3.1724,3.1658,3.1805,3.1816,3.1818,3.1882,3.1883,3.1885,3.1884,3.1883,3.1881,3.188,3.1954,3.1958,3.1963,3.202,0,0,3.1976,3.1978,0,0,0,0,0,0,0,0,3.172,3.173,3.1814,3.1816,3.1818,3.1872,3.1858,3.193,3.1885,3.1859,3.1881,3.1879,3.1929,3.1935,3.1953,3.2023,3.2026,3.1976,3.1979,3.1981,3.1982,0,0,0,0,0,0,0,3.1716,3.1727,3.1836,3.1815,3.1817,3.1816,3.1824,3.1871,3.1901,3.1861,3.1861,3.1871,3.193,3.1949,3.1955,3.2027,3.1976,3.198,3.1983,3.1985,3.2148,3.2149,0,0,0,0,0,0,3.1709,3.1723,3.1833,3.1838,3.1765,3.182,3.1829,3.1856,3.1901,3.1906,3.1872,3.187,3.1942,3.195,3.1957,3.2027,3.1981,3.1985,3.1987,3.2146,3.2148,3.215,0,0,0,0,0,0,3.1706,3.1719,3.183,3.1781,3.1795,3.1824,3.1854,3.1858,3.1877,3.1909,3.1914,3.1886,3.1941,3.1951,3.2004,3.203,3.1987,3.1991,3.2144,3.2147,3.2149,3.2167,0,0,0,0,0,0,3.1701,3.1718,3.1741,3.1781,3.1797,3.1877,3.1856,3.1861,3.1885,3.1884,3.1924,3.1929,3.1941,3.1998,3.2009,3.2035,3.1994,3.2142,3.2145,3.2148,3.2164,3.217,3.2174,0,0,0,0,0,3.1696,3.1742,3.1742,3.1755,3.1827,3.1879,3.1888,3.1902,3.1888,3.191,3.193,3.1927,3.2025,3.2003,3.2015,3.2043,3.214,3.2144,3.2148,3.2162,3.2169,3.2174,0,0,0,0,0,0,3.1702,3.1747,3.1748,3.1808,3.184,3.1879,3.1908,3.1909,3.1944,3.1941,3.1956,3.1965,3.2018,3.2036,3.2011,3.2101,3.2081,3.2087,3.2087,3.2094,3.2099,3.2093,3.1998,0,0,0,0,0,3.1711,3.1751,3.1787,3.1837,3.1853,3.1878,3.1901,3.1909,3.1942,3.1955,3.1979,3.2009,3.2047,3.2071,3.2108,3.2167,3.2175,3.2192,3.2197,3.2201,3.2206,3.2238,3.2246,3.2162,3.2162,3.2162,0,0,3.1729,3.1759,3.1782,3.1839,3.1865,3.1904,3.1889,3.1931,3.196,3.1961,3.2013,3.2031,3.2066,3.2123,3.2148,3.2139,3.2231,3.2206,3.2209,3.2212,3.2243,3.2251,3.2258,3.2165,3.2164,3.2164,0,0,3.1782,3.1809,3.1853,3.1879,3.1918,3.1934,3.1945,3.1983,3.1996,3.2049,3.205,3.2084,3.2148,3.2173,3.2194,3.2256,3.2255,3.2268,3.2295,3.2326,3.2332,3.2338,3.236,3.2367,3.2273,3.2273,3.2273,0,3.1799,3.186,3.1875,3.1919,3.1943,3.1946,3.1991,3.2014,3.2063,3.2079,3.2068,3.2149,3.2173,3.2235,3.225,3.2267,3.2279,3.2263,3.233,3.2336,3.2342,3.2363,3.2371,3.2274,3.2274,3.2274,3.2274,0,3.1879,3.1921,3.1952,3.2,3.2028,3.2071,3.2092,3.2118,3.2124,3.2141,3.2193,3.2222,3.2264,3.228,3.2285,3.2342,3.2335,3.2327,3.2307,3.2351,3.2371,3.2379,3.2276,3.2276,3.2275,3.2275,0,0,3.1938,3.1995,3.2006,3.2027,3.207,3.2102,3.2145,3.2188,3.221,3.2243,3.2278,3.2333,3.2326,3.235,3.2358,3.2385,3.2432,3.2374,3.2375,3.2383,3.2496,3.2502,3.2511,3.2431,3.2433,3.2434,3.2493,0,3.1996,3.2074,3.2089,3.2156,3.2195,3.2198,3.2235,3.2265,3.2281,3.2315,3.2333,3.2372,3.236,3.2374,3.2401,3.2421,3.2455,3.2416,3.2463,3.2465,3.2454,3.2521,3.2527,3.2582,3.2501,3.2502,3.2503,0,3.2074,3.211,3.2181,3.2219,3.2236,3.2269,3.2309,3.2342,3.2375,3.2385,3.2412,3.2417,3.246,3.2439,3.2498,3.2472,3.2492,3.2504,3.2506,3.2511,3.2486,3.2527,3.2599,3.2607,3.2515,3.2514,3.2513,0,3.2109,3.2176,3.2227,3.2245,3.2291,3.2314,3.2334,3.2366,3.239,3.2424,3.244,3.2478,3.2499,3.2528,3.2543,3.2526,3.2601,3.2581,3.261,3.261,3.2626,3.2624,3.2702,3.2639,3.2639,3.2638,3.2638,0,3.2172,3.2215,3.2244,3.2275,3.2324,3.234,3.2387,3.2406,3.2434,3.2469,3.2473,3.2505,3.2523,3.2557,3.2568,3.2615,3.2625,3.2633,3.2636,3.2633,3.2632,3.2646,3.2642,3.2641,3.264,3.264,3.2639,0,3.222,3.2241,3.2297,3.2336,3.2346,3.238,3.2413,3.2443,3.2459,3.2502,3.2513,3.2539,3.2579,3.2597,3.2646,3.2654,3.2708,3.2707,3.2697,3.2698,3.2726,3.2723,3.2815,3.2827,3.2756,3.2757,3.2757,0,3.2259,3.2293,3.2335,3.2359,3.238,3.2418,3.2443,3.246,3.2485,3.2526,3.2551,3.2591,3.2625,3.2689,3.2711,3.2748,3.2749,3.2778,3.2754,3.275,3.2749,3.2747,3.275,3.2783,3.2783,3.2784,3.2784,0,3.2325,3.2334,3.2371,3.2411,3.2441,3.2473,3.2505,3.2524,3.2545,3.2574,3.2616,3.2642,3.2692,3.2732,3.2771,3.279,3.279,3.2792,3.28,3.2798,3.279,3.2794,3.2709,3.279,3.2789,3.2789,3.2788,3.2788,3.237,3.24,3.2434,3.2475,3.25,3.253,3.256,3.258,3.2616,3.266,3.2667,3.2711,3.2743,3.2795,3.2815,3.2849,3.2842,3.2855,3.2858,3.2861,3.2862,3.2785,3.2856,3.2856,3.2856,3.2856,3.2856,0,3.2436,3.2458,3.2496,3.254,3.2572,3.2571,3.2605,3.2631,3.2671,3.2701,3.2734,3.2782,3.282,3.2846,3.2884,3.2907,3.2908,3.2916,3.2915,3.2919,3.2867,3.2855,3.2915,3.2915,3.2915,3.2915,3.2915,3.2915,3.2474,3.2525,3.2537,3.26,3.2622,3.2667,3.2686,3.2713,3.2737,3.2791,3.2823,3.284,3.2867,3.2908,3.2943,3.2949,3.2963,3.2972,3.2978,3.2929,3.2922,3.2917,3.2906,3.2975,3.2975,3.3027,3.3027,3.3028]}]]